Regional Weather Roundup
Issued by NWS

Home | Current Version | Previous Version | Text Only | Print | Product List | Glossary On
Versions: 1 2 3 4 5 6 7 8 9 10 11 12 13 14 15 16 17 18 19 20 21 22 23 24 25 26 27 28 29 30 31 32 33 34 35 36 37 38 39 40 41 42 43 44 45 46 47 48 49 50
000
ASUS44 KFWD 211310
RWRTX
NORTH TEXAS HOURLY WEATHER ROUNDUP
NATIONAL WEATHER SERVICE FORT WORTH TX
700 AM CST TUE NOV 21 2017

NOTE: "FAIR" INDICATES FEW OR NO CLOUDS BELOW 12,000 FEET WITH NO
SIGNIFICANT WEATHER AND/OR OBSTRUCTIONS TO VISIBILITY.

TXZ118-119-211400-
DALLAS/FORT WORTH METROPLEX

CITY           SKY/WX    TMP DP  RH WIND       PRES   REMARKS
DFW AIRPORT    CLOUDY    50  47  89 SE7       29.85R
DALLAS LOVE    CLOUDY    51  48  89 S14       29.86S
FTW MEACHAM    CLOUDY    51  47  86 S9        29.84R
DAL-EXECUTIVE  CLOUDY    49  47  93 S8        29.86R
FTW-ALLIANCE   CLOUDY    47  44  90 S5        29.84R
FTW-NAS-JRB    CLOUDY    52  46  80 S10       29.84S
FTW-SPINKS     CLEAR     52  48  87 S7        29.86R
ARLINGTON      CLOUDY    48  47  96 SE6       29.86R
GRAND PRAIRIE  CLOUDY    51  47  86 SE7       29.87R
ADDISON        CLEAR     50  46  87 SE13      29.87R
MESQUITE       CLEAR     48  48 100 SE10G16   29.89R
LANCASTER      CLOUDY    46  45  94 SE6       29.89S
$$

TXZ091>094-102>105-117-120-121-131>134-211400-
NORTH CENTRAL TEXAS

CITY           SKY/WX    TMP DP  RH WIND       PRES   REMARKS
SHRMAN/DENISON MOCLDY    50  47  88 S15       29.86R
GAINESVILLE    CLEAR     45  41  86 SE5       29.86R
BOWIE          CLOUDY    39  33  80 CALM      29.83R
BRIDGEPORT     CLOUDY    40  35  80 CALM      29.85R
DENTON         CLOUDY    49  46  90 SE9       29.85R
MCKINNEY       PTCLDY    50  49  96 S12       29.87R
BONHAM         CLOUDY   N/A N/A N/A S12       29.89R
GREENVILLE     PTCLDY    52  50  93 S8        29.90R
ROCKWALL       PTCLDY    49  49  99 S10G16    29.88R
TERRELL        MOCLDY    49  46  90 S8        29.90R
WAXAHACHIE     CLOUDY    47  47 100 SE5       29.89R
CLEBURNE       CLEAR     48  48 100 S9        29.87R
GRANBURY       CLOUDY    47  42  81 SE6       29.85S
$$

TXZ083>090-098>101-113>116-127>130-139>142-154-155-211400-
WESTERN NORTH TEXAS

CITY           SKY/WX    TMP DP  RH WIND       PRES   REMARKS
WICHITA FALLS  CLOUDY    38  32  79 CALM      29.81R
WF-KICKAPOO    CLOUDY    42  35  75 CALM      29.82R
VERNON         CLOUDY    38  31  75 N6        29.81S WCI  33
ABILENE        CLOUDY    49  38  65 S13       29.80R
ABILENE-DYESS  CLOUDY    49  38  64 S9        29.79S
GRAHAM           N/A     44  36  72 CALM      29.81R
BRECKENRIDGE   PTCLDY    49  36  59 S6        29.80R
CISCO          CLOUDY    52  37  58 SW13      29.82R
EASTLAND       PTCLDY    44  36  73 S3        29.82S
RANGER         PTCLDY    47  37  68 SW10      29.82R
MINERAL WELLS  PTCLDY    43  35  73 SE10      29.82R WCI  37
STEPHENVILLE   CLOUDY    42  37  82 S5        29.86S WCI  39
COMANCHE       CLOUDY    50  43  77 S6        29.84R
BROWNWOOD      CLOUDY    41  34  75 CALM      29.86R
COLEMAN        CLOUDY    46  37  70 CALM      29.85R
$$

TXZ143>147-156>162-174-175-211400-
CENTRAL TEXAS

CITY           SKY/WX    TMP DP  RH WIND       PRES   REMARKS
WACO           CLEAR     51  49  92 S9        29.89R
WACO-TSTC      CLEAR     48  46  93 S5        29.90
WACO-MCGREGOR  CLEAR     48  47  96 S9        29.89R
HILLSBORO      CLEAR     51  49  95 S9        29.87S
CORSICANA      PTCLDY    49  48  97 S9        29.91R FOG
MEXIA          PTCLDY    47  46  96 SE5       29.90R FOG
HEARNE         CLOUDY    51  51 100 SE3       29.92R
CAMERON        PTCLDY    51  50  95 S3        29.89S
TEMPLE         CLEAR     48  48 100 S6        29.90R
KILLEEN        PTCLDY    48  47  95 S6        29.86R
KILLEEN-SKYLRK PTCLDY    50  48  93 S5        29.88R
FORT HOOD      PTCLDY    47  46  98 S5        29.84R FOG
GATESVILLE     PTCLDY    46  46 100 CALM      29.89R
HAMILTON       PTCLDY    45  45 100 S6        29.87R
LAMPASAS       CLOUDY    50  49  94 SW5       29.85S
$$

TXZ095>097-106>112-122>126-135>138-148>153-164>167-211400-
EAST TEXAS

CITY           SKY/WX    TMP DP  RH WIND       PRES   REMARKS
PARIS          CLOUDY    42  40  92 SE7       29.92R WCI  38
SULPHUR SPRNGS CLOUDY    49  47  92 S3        29.93R
MOUNT PLEASANT CLOUDY    44  40  87 E5        29.94S
GILMER         CLOUDY    44  40  85 S3        29.94R
MINEOLA        PTCLDY    48  46  93 S6        29.92R
TYLER          PTCLDY    46  44  93 S5        29.92R
LONGVIEW       CLOUDY    43  43 100 S5        29.93
MARSHALL       CLOUDY    37  35  90 CALM      29.98R
ATHENS         MOCLDY    43  43 100 CALM      29.91R
PALESTINE      MOCLDY    50  48  92 CALM      29.93R
JACKSONVILLE   CLOUDY    47  42  82 S8        29.94S
HENDERSON      CLOUDY    46  40  81 CALM      29.95R
CENTER         MOSUNNY   39  36  89 SE6       29.97S WCI  34
NACOGDOCHES    MOCLDY    42  40  92 SE5       29.95S WCI  39
LUFKIN         MOCLDY    46  40  79 SE6       29.94F
$$

SUPPLEMENTAL OBSERVATIONS (NWS FORT WORTH AREA)

CITY           SKY/WX    TMP DP  RH WIND       PRES   REMARKS
CADDO GRASSLND   N/A     50  46  87 S6          N/A
LBJ GRASSLAND    N/A     46  34  61 SE7         N/A
POSSUM KINGDOM   N/A     48  36  61 E5          N/A
GRANBURY         N/A     46  41  81 SE6         N/A
MCGREGOR         N/A     46  41  81 S5          N/A
TEMPLE           N/A     48  45  87 S5          N/A
$$

SUPPLEMENTAL OBSERVATIONS (NWS NORMAN AREA)

CITY           SKY/WX    TMP DP  RH WIND       PRES   REMARKS
GOODLETT         N/A     36  30  78 N9        29.81R WCI  29
ODELL            N/A     31  30  94 NE8       29.82R WCI  24
CROWELL          N/A     38  31  76 NW10      29.80S WCI  31
KNOX CITY        N/A     42  32  66 W3        29.81R
SEYMOUR          N/A     40  34  78 SW3       29.80S
MILLERS CREEK    N/A     45  36  70 SW7         N/A
$$

SUPPLEMENTAL OBSERVATIONS (NWS SAN ANGELO AREA)

CITY           SKY/WX    TMP DP  RH WIND       PRES   REMARKS
WEINERT          N/A     46  35  66 S5        29.80R
HASKELL          N/A     46  35  66 S6        29.80R
THROCKMORTON     N/A     46  37  73 SW2       29.81R
STAMFORD         N/A     47  37  68 S5        29.81R
CLYDE            N/A     51  37  59 S8        29.81S
HAMBY            N/A     48  36  61 SW10        N/A
COLORADO BEND    N/A     50  46  87 S6          N/A
$$

SUPPLEMENTAL OBSERVATIONS (NWS SHREVEPORT AREA)

CITY           SKY/WX    TMP DP  RH WIND       PRES   REMARKS
TEXARKANA        N/A     36  34  93 CALM        N/A
LINDEN           N/A     37  34  87 CALM        N/A
LUFKIN           N/A     46  39  76 MISG        N/A
N SABINE NF      N/A     43  39  87 MISG        N/A
$$

SUPPLEMENTAL OBSERVATIONS ARE A COLLECTION OF AUTOMATED INSTRUMENTS
THAT ARE MAINTAINED BY A VARIETY OF FEDERAL AND STATE AGENCIES.
CERTAIN ELEMENTS...SUCH AS HUMIDITY VALUES AND SUSTAINED WIND
SPEEDS...MAY BE APPROXIMATED.





USA.gov is the U.S. government's official web portal to all federal, state and local government web resources and services.